K5LUO Weather Reports


Display with metric or nautical units.
time (UTC)temp
F
wind
direction
speed
MPH
gust
MPH
rain 1hr
in
rain 24hr
in
rain mn
in
humidity
%
barometer
mb
20260509223003 84 118 6.0 14.0 0.00 0.01 0.00 37 1008.2
20260509221609 84 107 6.0 10.0 0.00 0.01 0.00 37 1008.3
20260509220028 84 107 6.0 10.0 0.00 0.01 0.00 37 1008.4
20260509214617 85 122 6.0 9.0 0.00 0.01 0.00 35 1008.6
20260509213045 84 104 2.0 9.0 0.00 0.01 0.00 36 1008.4
20260509211503 84 111 6.0 13.0 0.00 0.01 0.00 36 1008.4
20260509204528 84 107 4.0 8.0 0.00 0.01 0.00 35 1008.8
20260509203117 85 74 5.0 11.0 0.00 0.01 0.00 36 1009.0
20260509201528 86 142 4.0 8.0 0.00 0.01 0.00 35 1009.1
20260509200019 85 144 2.0 5.0 0.00 0.01 0.00 36 1009.2
20260509194625 84 146 4.0 9.0 0.00 0.01 0.00 36 1009.4
20260509193045 85 184 1.0 9.0 0.00 0.01 0.00 36 1009.6
20260509191635 84 194 1.0 7.0 0.00 0.01 0.00 38 1009.7
20260509190058 83 199 3.0 9.0 0.00 0.01 0.00 39 1009.9
20260509184523 81 87 6.0 9.0 0.00 0.01 0.00 41 1010.0
20260509183120 83 86 5.0 10.0 0.00 0.01 0.00 38 1010.1
20260509181529 82 131 4.0 7.0 0.00 0.01 0.00 38 1010.3
20260509180128 83 210 4.0 11.0 0.00 0.01 0.00 38 1010.3
20260509174602 83 173 3.0 8.0 0.00 0.01 0.00 40 1010.7
20260509173011 82 194 3.0 8.0 0.00 0.01 0.00 43 1011.0
20260509171606 80 112 1.0 7.0 0.00 0.01 0.00 48 1011.1
20260509170027 79 112 2.0 7.0 0.00 0.01 0.00 51 1011.2
20260509164610 79 135 2.0 7.0 0.00 0.01 0.00 54 1011.3
20260509163030 77 91 4.0 8.0 0.00 0.01 0.00 61 1011.0
20260509161624 77 90 3.0 8.0 0.00 0.01 0.00 65 1011.2
20260509160037 76 147 3.0 7.0 0.00 0.01 0.00 67 1011.5
20260509154633 74 150 1.0 6.0 0.00 0.01 0.00 70 1011.4
20260509153046 74 131 5.0 8.0 0.00 0.01 0.00 71 1011.5
20260509151632 73 218 3.0 6.0 0.00 0.01 0.00 74 1011.5
20260509150056 71 219 2.0 6.0 0.00 0.01 0.00 76 1011.7
20260509144517 70 190 4.0 9.0 0.00 0.01 0.00 79 1011.7
20260509143107 69 167 4.0 7.0 0.00 0.01 0.00 79 1011.4
20260509141508 68 69 2.0 5.0 0.00 0.01 0.00 80 1011.4
20260509140119 67 65 1.0 4.0 0.00 0.01 0.00 82 1011.4
20260509134554 64 65 0.0 0.0 0.00 0.01 0.00 85 1011.3
20260509133016 62 65 0.0 5.0 0.00 0.01 0.00 87 1011.2
20260509131620 60 65 0.0 2.0 0.00 0.01 0.00 89 1011.0
20260509130047 58 65 0.0 0.0 0.00 0.01 0.00 90 1010.9
20260509124502 58 65 1.0 4.0 0.00 0.01 0.00 90 1010.6
20260509123105 57 65 3.0 5.0 0.00 0.01 0.00 90 1010.5
20260509121520 57 65 0.0 0.0 0.00 0.01 0.00 89 1010.1
20260509120118 57 65 0.0 0.0 0.00 0.01 0.00 89 1009.9
20260509114533 57 65 0.0 0.0 0.00 0.01 0.00 89 1009.8
20260509113129 57 65 0.0 0.0 0.00 0.01 0.00 89 1009.5
20260509111542 57 65 0.0 0.0 0.00 0.01 0.00 89 1009.6
20260509110133 57 65 0.0 0.0 0.00 0.01 0.00 89 1009.5
20260509104558 58 65 0.0 2.0 0.00 0.01 0.00 88 1009.8
20260509103021 58 65 2.0 5.0 0.00 0.01 0.00 87 1009.8
20260509101621 58 65 2.0 5.0 0.00 0.01 0.00 86 1009.8
20260509100040 59 65 2.0 5.0 0.00 0.01 0.00 85 1010.0
20260509094631 60 65 2.0 6.0 0.00 0.01 0.00 84 1010.0
20260509093050 62 66 1.0 4.0 0.00 0.01 0.00 85 1009.8
20260509091516 62 65 0.0 5.0 0.00 0.01 0.00 85 1009.7
20260509090120 62 65 2.0 5.0 0.00 0.01 0.00 85 1009.6
20260509084535 62 63 2.0 5.0 0.00 0.01 0.00 85 1009.8
20260509083121 62 62 2.0 6.0 0.00 0.01 0.00 84 1010.0
20260509081540 61 59 1.0 4.0 0.00 0.01 0.00 84 1010.0
20260509080013 62 59 0.0 0.0 0.00 0.01 0.00 83 1010.1
20260509074609 62 59 0.0 2.0 0.00 0.01 0.00 83 1010.1
20260509073024 62 59 0.0 0.0 0.00 0.01 0.00 82 1010.1
20260509071518 62 59 0.0 2.0 0.00 0.01 0.00 82 1010.4
20260509070116 62 59 0.0 0.0 0.00 0.01 0.00 82 1010.4
20260509064536 63 59 0.0 0.0 0.00 0.01 0.00 82 1010.8
20260509063005 63 59 0.0 1.0 0.00 0.01 0.00 82 1010.8
20260509061601 63 59 0.0 0.0 0.00 0.01 0.00 82 1010.9
20260509060023 63 59 0.0 4.0 0.00 0.01 0.00 83 1010.9
20260509054620 63 59 2.0 5.0 0.00 0.01 0.00 83 1011.1
20260509053107 62 59 4.0 8.0 0.00 0.01 0.00 84 1010.8
20260509051633 63 44 5.0 9.0 0.00 0.01 0.00 83 1010.6
20260509050049 64 355 3.0 7.0 0.00 0.01 0.00 81 1010.2
20260509044542 64 355 2.0 3.0 0.00 0.01 0.01 80 1010.3
20260509043006 64 355 3.0 6.0 0.00 0.01 0.01 81 1010.2
20260509041605 64 355 1.0 5.0 0.00 0.01 0.01 81 1010.3
20260509040027 65 355 1.0 4.0 0.00 0.01 0.01 81 1010.4
20260509034621 65 355 0.0 2.0 0.00 0.01 0.01 80 1010.2
20260509033032 65 355 1.0 5.0 0.00 0.01 0.01 80 1010.1
20260509031625 65 355 4.0 6.0 0.00 0.01 0.01 80 1009.8
20260509030052 66 355 0.0 0.0 0.00 0.01 0.01 79 1009.9
20260509024522 66 355 2.0 8.0 0.00 0.01 0.01 79 1009.6
20260509023007 66 355 7.0 12.0 0.00 0.01 0.01 78 1009.3
20260509021606 66 211 5.0 11.0 0.00 0.01 0.01 77 1008.6
20260509020027 67 202 3.0 8.0 0.00 0.01 0.01 77 1008.2
20260509014620 67 202 5.0 8.0 0.00 0.01 0.01 77 1008.1
20260509013052 67 199 6.0 13.0 0.00 0.01 0.01 77 1007.5
20260509011514 68 202 6.0 12.0 0.01 0.01 0.01 77 1007.2
20260509010109 69 213 9.0 22.0 0.01 0.01 0.01 77 1007.2
20260509004539 72 198 7.0 12.0 0.01 0.01 0.01 75 1006.9
20260509003132 74 202 3.0 6.0 0.01 0.01 0.01 72 1007.1
20260509001555 75 203 2.0 5.0 0.00 0.00 0.00 68 1007.7
20260509000013 77 202 5.0 7.0 0.00 0.00 0.00 63 1007.0
20260508234618 77 201 4.0 7.0 0.00 0.00 0.00 60 1006.4
20260508233034 78 201 2.0 8.0 0.00 0.00 0.00 59 1006.6
20260508231629 79 213 3.0 7.0 0.00 0.00 0.00 57 1006.9
20260508230057 79 198 7.0 20.0 0.00 0.00 0.00 56 1006.5
20260508224515 80 209 5.0 15.0 0.00 0.00 0.00 55 1006.3